Terminal Aerodrome Forecast
Issued by NWS La Crosse, WI

Home | Current Version | Previous Version | Text Only | Print | Product List | Glossary On
Versions: 1 2 3 4 5 6 7 8 9 10 11 12 13 14 15 16 17 18 19 20 21 22 23 24 25 26 27 28 29 30 31 32
000
FTUS43 KARX 190525
TAFLSE
TAF
KLSE 190525Z 1906/2006 14008KT P6SM SCT250
     FM191600 18013G23KT P6SM BKN250
     FM191800 18018G28KT P6SM SCT150
     FM200000 18014G22KT P6SM BKN150
     FM200300 19014KT P6SM BKN050=

USA.gov is the U.S. government's official web portal to all federal, state and local government web resources and services.